GW5727 Weather Reports


Display with metric or nautical units.
time (UTC)temp
F
wind
direction
speed
MPH
gust
MPH
rain 1hr
in
rain 24hr
in
rain mn
in
humidity
%
barometer
mb
20260503174944 57 189 1.0 1.0 0.00 0.00 0.00 37 1017.9
20260503174443 58 220 4.0 6.0 0.00 0.00 0.00 34 1017.9
20260503173944 57 232 2.0 2.0 0.00 0.00 0.00 38 1018.0
20260503173440 57 247 2.0 3.0 0.00 0.00 0.00 38 1017.9
20260503172937 57 273 2.0 2.0 0.00 0.00 0.00 34 1018.0
20260503172434 57 263 2.0 3.0 0.00 0.00 0.00 34 1018.2
20260503171930 56 266 1.0 1.0 0.00 0.00 0.00 38 1018.2
20260503171427 57 201 2.0 3.0 0.00 0.00 0.00 39 1018.2
20260503170925 56 250 3.0 5.0 0.00 0.00 0.00 37 1018.0
20260503170421 57 279 2.0 2.0 0.00 0.00 0.00 40 1018.3
20260503150813 50 188 4.0 6.0 0.00 0.00 0.00 45 1019.4
20260503150309 50 310 3.0 5.0 0.00 0.00 0.00 50 1019.5
20260503140234 50 259 2.0 3.0 0.00 0.00 0.00 52 1019.3
20260503131203 47 118 1.0 2.0 0.00 0.00 0.00 52 1019.3
20260503130701 47 144 3.0 3.0 0.00 0.00 0.00 54 1019.2
20260503130158 46 251 1.0 1.0 0.00 0.00 0.00 53 1019.3
20260503120123 44 269 2.0 3.0 0.00 0.00 0.00 58 1019.0
20260503110551 35 260 0.0 0.0 0.00 0.00 0.00 81 1018.6
20260503090438 38 291 0.0 1.0 0.00 0.00 0.00 79 1017.0
20260503081404 38 267 0.0 1.0 0.00 0.00 0.00 77 1016.9
20260503080901 38 235 1.0 1.0 0.00 0.00 0.00 81 1016.9
20260503080358 38 276 0.0 1.0 0.00 0.00 0.00 81 1016.7
20260503072834 36 261 0.0 0.0 0.00 0.00 0.00 85 1016.4
20260503072331 36 256 0.0 0.0 0.00 0.00 0.00 85 1016.5
20260503071827 35 259 0.0 0.0 0.00 0.00 0.00 86 1016.5
20260503071325 36 277 1.0 2.0 0.00 0.00 0.00 86 1016.5
20260503070821 36 266 0.0 0.0 0.00 0.00 0.00 85 1016.5
20260503070319 36 264 0.0 0.0 0.00 0.00 0.00 85 1016.4
20260503060250 39 287 0.0 0.0 0.00 0.00 0.00 77 1016.1
20260503054737 40 293 1.0 2.0 0.00 0.00 0.00 74 1016.1
20260503054234 40 276 0.0 1.0 0.00 0.00 0.00 74 1016.1
20260503053732 40 283 0.0 1.0 0.00 0.00 0.00 72 1015.9
20260503053231 40 285 0.0 1.0 0.00 0.00 0.00 75 1016.2
20260503052726 40 276 0.0 0.0 0.00 0.00 0.00 76 1016.1
20260503052223 40 304 1.0 1.0 0.00 0.00 0.00 74 1016.2
20260503051718 40 261 0.0 0.0 0.00 0.00 0.00 75 1016.2
20260503051216 40 307 1.0 1.0 0.00 0.00 0.00 73 1016.4
20260503050712 41 283 0.0 1.0 0.00 0.00 0.00 73 1016.2
20260503050209 41 273 1.0 1.0 0.00 0.00 0.00 73 1016.2
20260503045707 41 355 4.0 5.0 0.00 0.00 0.00 72 1016.2
20260503045204 41 325 1.0 2.0 0.00 0.00 0.00 73 1016.4
20260503044700 41 294 2.0 2.0 0.00 0.00 0.00 73 1016.4
20260503044158 41 281 1.0 1.0 0.00 0.00 0.00 74 1016.4
20260503043654 42 274 0.0 0.0 0.00 0.00 0.00 74 1016.4
20260503043152 41 277 1.0 2.0 0.00 0.00 0.00 72 1016.2
20260503042647 41 336 1.0 1.0 0.00 0.00 0.00 73 1016.2
20260503042144 41 56 2.0 2.0 0.00 0.00 0.00 74 1016.5
20260503041640 41 238 1.0 1.0 0.00 0.00 0.00 76 1016.5
20260503041138 41 269 0.0 0.0 0.00 0.00 0.00 75 1016.4
20260503040636 41 1 2.0 3.0 0.00 0.00 0.00 75 1016.6
20260503040133 41 302 2.0 2.0 0.00 0.00 0.00 74 1016.4
20260503035629 41 265 0.0 0.0 0.00 0.00 0.00 75 1016.4
20260503035127 41 265 0.0 0.0 0.00 0.00 0.00 74 1016.2
20260503034624 41 301 1.0 1.0 0.00 0.00 0.00 75 1016.4
20260503034121 41 255 0.0 1.0 0.00 0.00 0.00 74 1016.1
20260503033618 41 299 2.0 2.0 0.00 0.00 0.00 74 1016.2
20260503033116 41 270 0.0 0.0 0.00 0.00 0.00 72 1016.4
20260503032614 42 258 0.0 0.0 0.00 0.00 0.00 72 1016.1
20260503032112 42 292 0.0 1.0 0.00 0.00 0.00 70 1016.2
20260503031610 43 273 1.0 1.0 0.00 0.00 0.00 71 1016.1
20260503031107 43 263 0.0 0.0 0.00 0.00 0.00 71 1016.1
20260503030603 42 239 0.0 1.0 0.00 0.00 0.00 71 1016.4
20260503030100 42 306 1.0 1.0 0.00 0.00 0.00 70 1016.4
20260503025556 42 249 1.0 2.0 0.00 0.00 0.00 69 1016.2
20260503025054 42 278 2.0 3.0 0.00 0.00 0.00 70 1016.4
20260503024550 41 265 0.0 0.0 0.00 0.00 0.00 70 1016.4
20260503024048 42 217 0.0 0.0 0.00 0.00 0.00 69 1016.1
20260503023544 42 277 1.0 1.0 0.00 0.00 0.00 69 1016.2
20260503023042 42 274 1.0 1.0 0.00 0.00 0.00 68 1016.2
20260503022538 42 280 1.0 1.0 0.00 0.00 0.00 66 1016.4
20260503022032 43 243 0.0 0.0 0.00 0.00 0.00 66 1016.2
20260503021530 43 274 1.0 1.0 0.00 0.00 0.00 64 1016.5
20260503021026 44 10 2.0 3.0 0.00 0.00 0.00 64 1016.1
20260503020524 44 269 1.0 1.0 0.00 0.00 0.00 62 1016.0
20260503020021 44 270 0.0 1.0 0.00 0.00 0.00 63 1015.9
20260503015517 43 303 2.0 3.0 0.00 0.00 0.00 61 1016.1
20260503015014 44 268 0.0 0.0 0.00 0.00 0.00 64 1015.9
20260503014510 44 265 0.0 0.0 0.00 0.00 0.00 61 1015.9
20260503014009 45 279 1.0 1.0 0.00 0.00 0.00 58 1015.7
20260503013505 45 211 1.0 1.0 0.00 0.00 0.00 60 1015.6
20260503013003 45 220 1.0 1.0 0.00 0.00 0.00 57 1015.6
20260503012501 45 298 1.0 2.0 0.00 0.00 0.00 57 1015.7
20260503011956 46 268 0.0 0.0 0.00 0.00 0.00 58 1015.6
20260503011453 45 300 1.0 1.0 0.00 0.00 0.00 57 1015.3
20260503010950 46 260 0.0 0.0 0.00 0.00 0.00 58 1015.3
20260503010447 46 275 3.0 3.0 0.00 0.00 0.00 55 1015.4
20260503005944 46 263 0.0 1.0 0.00 0.00 0.00 55 1015.2
20260503005441 46 268 1.0 1.0 0.00 0.00 0.00 55 1015.0
20260503004938 46 221 1.0 1.0 0.00 0.00 0.00 55 1015.1
20260503004435 46 297 1.0 2.0 0.00 0.00 0.00 55 1014.8
20260503003932 46 258 0.0 1.0 0.00 0.00 0.00 53 1014.9
20260503003429 47 271 0.0 1.0 0.00 0.00 0.00 53 1014.8
20260503002926 47 274 1.0 2.0 0.00 0.00 0.00 52 1014.9
20260503002423 47 276 1.0 1.0 0.00 0.00 0.00 54 1014.6
20260503001919 47 285 0.0 1.0 0.00 0.00 0.00 52 1014.8
20260503001416 47 272 1.0 1.0 0.00 0.00 0.00 50 1014.8
20260503000914 47 298 1.0 1.0 0.00 0.00 0.00 49 1014.3
20260503000411 48 298 1.0 1.0 0.00 0.00 0.00 48 1014.5
20260502235908 48 271 1.0 1.0 0.00 0.00 0.00 50 1014.5
20260502235405 47 230 2.0 3.0 0.00 0.00 0.00 49 1014.4
20260502234902 48 235 1.0 2.0 0.00 0.00 0.00 50 1014.5
20260502234358 48 239 1.0 2.0 0.00 0.00 0.00 47 1014.5
20260502233855 48 182 2.0 3.0 0.00 0.00 0.00 47 1014.3
20260502233351 48 214 1.0 2.0 0.00 0.00 0.00 48 1014.0
20260502232848 48 287 1.0 2.0 0.00 0.00 0.00 48 1014.3
20260502232345 48 276 1.0 1.0 0.00 0.00 0.00 48 1014.2
20260502231841 49 298 1.0 2.0 0.00 0.00 0.00 47 1013.7
20260502231339 49 279 1.0 2.0 0.00 0.00 0.00 46 1013.9
20260502230837 49 286 3.0 6.0 0.00 0.00 0.00 45 1013.9
20260502230335 49 274 2.0 2.0 0.00 0.00 0.00 45 1014.0
20260502225832 49 283 1.0 2.0 0.00 0.00 0.00 46 1014.0
20260502225328 49 296 1.0 2.0 0.00 0.00 0.00 48 1013.9
20260502224825 49 282 3.0 5.0 0.00 0.00 0.00 46 1013.9
20260502224321 49 311 2.0 3.0 0.00 0.00 0.00 45 1013.8
20260502223819 49 225 1.0 2.0 0.00 0.00 0.00 47 1013.8
20260502223317 50 179 0.0 1.0 0.00 0.00 0.00 45 1014.0
20260502222814 50 320 1.0 2.0 0.00 0.00 0.00 43 1013.6
20260502222311 52 174 3.0 3.0 0.00 0.00 0.00 42 1013.9
20260502221807 52 353 5.0 8.0 0.00 0.00 0.00 41 1013.9
20260502221303 54 238 1.0 1.0 0.00 0.00 0.00 42 1013.7
20260502220801 54 241 1.0 1.0 0.00 0.00 0.00 41 1013.7
20260502220256 54 297 2.0 2.0 0.00 0.00 0.00 43 1013.8
20260502215753 54 161 1.0 1.0 0.00 0.00 0.00 42 1013.6
20260502215251 54 278 2.0 2.0 0.00 0.00 0.00 44 1013.7
20260502214748 53 298 2.0 2.0 0.00 0.00 0.00 43 1013.6
20260502214244 54 269 3.0 3.0 0.00 0.00 0.00 42 1013.7
20260502213742 55 180 3.0 5.0 0.00 0.00 0.00 42 1013.6
20260502213239 56 264 1.0 1.0 0.00 0.00 0.00 40 1013.7
20260502212738 55 245 3.0 7.0 0.00 0.00 0.00 40 1013.9
20260502212236 56 258 1.0 2.0 0.00 0.00 0.00 40 1013.7
20260502211731 55 226 1.0 2.0 0.00 0.00 0.00 40 1013.4
20260502211228 54 231 2.0 2.0 0.00 0.00 0.00 42 1013.7
20260502210725 55 271 2.0 2.0 0.00 0.00 0.00 43 1013.6
20260502210223 54 255 1.0 1.0 0.00 0.00 0.00 42 1013.5
20260502205720 54 275 2.0 3.0 0.00 0.00 0.00 41 1013.7
20260502205216 55 246 3.0 3.0 0.00 0.00 0.00 41 1013.8
20260502204713 55 194 2.0 2.0 0.00 0.00 0.00 41 1013.7
20260502204211 54 283 2.0 2.0 0.00 0.00 0.00 42 1013.6
20260502203708 55 290 2.0 2.0 0.00 0.00 0.00 43 1013.8
20260502203206 53 270 4.0 6.0 0.00 0.00 0.00 45 1013.8
20260502202700 53 211 2.0 2.0 0.00 0.00 0.00 43 1013.7
20260502202159 54 265 1.0 2.0 0.00 0.00 0.00 49 1013.7
20260502201655 53 131 1.0 2.0 0.00 0.00 0.00 45 1013.8
20260502201152 54 291 2.0 3.0 0.00 0.00 0.00 45 1013.8
20260502200647 54 272 1.0 1.0 0.00 0.00 0.00 44 1013.7
20260502200144 54 280 2.0 2.0 0.00 0.00 0.00 44 1013.7
20260502195643 55 212 2.0 3.0 0.00 0.00 0.00 43 1013.8
20260502195138 54 267 2.0 3.0 0.00 0.00 0.00 43 1014.0
20260502194635 55 294 1.0 2.0 0.00 0.00 0.00 45 1013.8
20260502194132 55 286 1.0 2.0 0.00 0.00 0.00 42 1013.9
20260502193629 55 225 1.0 2.0 0.00 0.00 0.00 45 1013.8
20260502193126 54 259 4.0 5.0 0.00 0.00 0.00 46 1013.9
20260502192621 53 167 2.0 3.0 0.00 0.00 0.00 46 1014.0
20260502192119 53 261 1.0 1.0 0.00 0.00 0.00 46 1014.2
20260502191615 53 266 3.0 5.0 0.00 0.00 0.00 45 1014.3
20260502191113 54 262 3.0 5.0 0.00 0.00 0.00 46 1014.0
20260502190610 56 120 2.0 2.0 0.00 0.00 0.00 45 1014.3
20260502190108 55 282 3.0 3.0 0.00 0.00 0.00 42 1014.2
20260502185602 54 323 2.0 2.0 0.00 0.00 0.00 46 1014.3
20260502185059 54 224 1.0 2.0 0.00 0.00 0.00 44 1014.2
20260502184555 54 266 3.0 5.0 0.00 0.00 0.00 43 1014.4
20260502184051 54 265 0.0 1.0 0.00 0.00 0.00 46 1014.6
20260502183548 55 272 0.0 1.0 0.00 0.00 0.00 46 1014.7
20260502183044 53 296 4.0 5.0 0.00 0.00 0.00 44 1014.6
20260502182539 53 289 2.0 2.0 0.00 0.00 0.00 47 1015.0
20260502182035 53 277 1.0 2.0 0.00 0.00 0.00 48 1014.8
20260502181533 53 300 3.0 3.0 0.00 0.00 0.00 50 1014.8
20260502181032 53 281 0.0 1.0 0.00 0.00 0.00 46 1014.7
20260502180529 53 329 0.0 1.0 0.00 0.00 0.00 47 1014.8